User: anonymous   Login
Location: Ostrava
(49.8330°N, 18.2830°E)
Time: 03:39:47
(UTC+02:00)
Language:

Vanguard 2 Rocket - Orbit

View from above orbital plane
View from above orbital plane
View from above satellite
View from above satellite

Ground track
Ground track

The orbit data is extracted from the following two-line orbital elements,

1    12U 59001B   18112.38091070 +.00000358 +00000-0 +18869-3 0  9990
2    12 032.9110 224.5559 1668108 258.2152 082.7303 11.44216791189803
Epoch (UTC): 22 April 2018 09:08:30
Eccentricity: 0.1668108
inclination: 32.9110°
perigee height: 553 km
apogee height: 3328 km
right ascension of ascending node: 224.5559°
argument of perigee: 258.2152°
revolutions per day: 11.44216791
mean anomaly at epoch: 82.7303°
orbit number at epoch: 18980

The dashed part of the orbit path shows where the satellite is in the earth's shadow,  

DLR